Weather in Kargicak

Turkey     36°27′54″N   32°09′18″E
temp.,
°C
wind,
m/s
gust,
m/s
humid.,
%
clouds,
%
prec.,
mm/h
press.,
hPa
HPBL,
m
15 april, thu
thu1500:00+10ne1170100 0.0 101910
03:00+10e115117 0.0 101810
06:00+10ene22383 0.0 101811
09:00+15sw21322 0.0 1019294
12:00+18sw324031 0.0 1019744
15:00+18sw32423 0.0 1018672
18:00+16wsw215116 0.0 1017275
21:00+13nne1158100 0.0 101711
16 april, fri
fri1600:00+13ene114863 0.0 101710
03:00+13ene114289 0.0 101610
06:00+13ene1139100 0.0 101611
09:00+17sw213696 0.0 1017268
12:00+19sw32385 0.0 1018685
15:00+20sw213810 0.0 1017659
18:00+17wsw214816 0.0 1017250
21:00+14ne11568 0.0 101711
17 april, sat
sat1700:00+15ene2239100 0.0 101711
03:00+15ne113493 0.0 101611
06:00+14ese113729 0.0 101711
09:00+19wsw323366 0.0 1018224
12:00+21ssw1132100 0.0 1017278
15:00+24ssw2132100 0.0 1015393
18:00+20e1245100 0.0 1017211
21:00+18e1150100 0.0 101811
18 april, sun
sun1800:00+17n114898 0.0 101911
03:00+19ne4334100 0.0 101437
06:00+16nne1147100 0.0 101811
09:00+21ene443785 0.0 101771
12:00+26sw2427100 0.0 1018896
15:00+25s1128100 0.0 1017745
18:00+23sw014382 0.0 101645
21:00+20ne2238100 0.0 101613
19 april, mon
mon1900:00+21ne2232100 0.0 101512
03:00+21ne2230100 0.0 101215
06:00+21nnw1133100 0.0 101211
09:00+25nw0132100 0.0 1011146
12:00+27ese3826100 0.0 10091068
15:00+27sw3829100 0.0 1008929
18:00+23wsw3442100 0.0 100775
21:00+15wsw1289100 0.0 1010160